Volver al catálogo

ARIANE 2 DEB

LostGTO
NORAD 33565·DEBRIS·🇫🇷 France

Lanzado Jan 27, 1989 desde Guiana Space Centre

Loading…

TLE

ObsoletoSource: Space-Track

Época: Oct 16, 2010, 20:54 UTC

1 33565U 89006BH  10289.87091647  .00000003  00000-0  10000-3 0  9994
2 33565   7.8336 226.1622 7096760 232.3382  35.1640  2.25254661 39587

Sigue ARIANE 2 DEB en tiempo real con AllMySat

Download on the App Store